Time,TemperatureF,DewpointF,PressureIn,WindDirection,WindDirectionDegrees,WindSpeedMPH,WindSpeedGustMPH,Humidity,HourlyPrecipIn,Conditions,Clouds,dailyrainin,SoftwareType,DateUTC
2013-08-22 00:01:00,64.4,35.3,30.13,North,0,0.0,0.0,34,0.00,,,0.00,WUHU216HW,2013-08-22 06:01:00,
2013-08-22 00:06:00,64.4,35.3,30.13,North,0,0.0,0.0,34,0.00,,,0.00,WUHU216HW,2013-08-22 06:06:00,
2013-08-22 00:11:00,64.3,35.1,30.13,North,0,0.0,0.0,34,0.00,,,0.00,WUHU216HW,2013-08-22 06:11:00,
2013-08-22 00:16:00,64.3,35.1,30.13,North,0,0.0,0.0,34,0.00,,,0.00,WUHU216HW,2013-08-22 06:16:00,
2013-08-22 00:21:00,64.1,34.9,30.14,North,0,0.0,0.0,34,0.00,,,0.00,WUHU216HW,2013-08-22 06:21:00,
2013-08-22 00:26:00,63.9,35.6,30.13,North,0,0.0,0.0,35,0.00,,,0.00,WUHU216HW,2013-08-22 06:26:00,
2013-08-22 00:31:00,63.7,36.1,30.13,North,0,0.0,0.0,36,0.00,,,0.00,WUHU216HW,2013-08-22 06:31:00,
2013-08-22 00:36:00,63.7,36.1,30.13,North,0,0.0,0.0,36,0.00,,,0.00,WUHU216HW,2013-08-22 06:36:00,
2013-08-22 00:41:00,63.9,37.0,30.13,North,0,0.0,0.0,37,0.00,,,0.00,WUHU216HW,2013-08-22 06:41:00,
2013-08-22 00:46:00,63.9,37.0,30.13,North,0,0.0,0.0,37,0.00,,,0.00,WUHU216HW,2013-08-22 06:46:00,
2013-08-22 00:51:00,64.1,36.4,30.13,North,0,0.0,0.0,36,0.00,,,0.00,WUHU216HW,2013-08-22 06:51:00,
2013-08-22 00:56:00,63.7,36.1,30.14,North,0,0.0,0.0,36,0.00,,,0.00,WUHU216HW,2013-08-22 06:56:00,
2013-08-22 01:01:00,63.0,35.5,30.14,North,0,0.0,0.0,36,0.00,,,0.00,WUHU216HW,2013-08-22 07:01:00,
2013-08-22 01:06:00,62.3,35.5,30.14,North,0,0.0,0.0,37,0.00,,,0.00,WUHU216HW,2013-08-22 07:06:00,
2013-08-22 01:11:00,61.6,34.1,30.14,North,0,0.0,0.0,36,0.00,,,0.00,WUHU216HW,2013-08-22 07:11:00,
2013-08-22 01:16:00,61.0,34.4,30.14,North,0,0.0,0.0,37,0.00,,,0.00,WUHU216HW,2013-08-22 07:16:00,
2013-08-22 01:21:00,60.5,34.6,30.14,North,0,0.0,0.0,38,0.00,,,0.00,WUHU216HW,2013-08-22 07:21:00,
2013-08-22 01:26:00,60.1,34.3,30.14,North,0,0.0,0.0,38,0.00,,,0.00,WUHU216HW,2013-08-22 07:26:00,
2013-08-22 01:31:00,59.9,34.8,30.14,North,0,0.0,0.0,39,0.00,,,0.00,WUHU216HW,2013-08-22 07:31:00,
2013-08-22 01:36:00,59.9,35.6,30.14,North,0,0.0,0.0,40,0.00,,,0.00,WUHU216HW,2013-08-22 07:36:00,
2013-08-22 01:41:00,59.9,35.6,30.14,North,0,0.0,0.0,40,0.00,,,0.00,WUHU216HW,2013-08-22 07:41:00,
2013-08-22 01:46:00,59.9,35.6,30.14,North,0,0.0,0.0,40,0.00,,,0.00,WUHU216HW,2013-08-22 07:46:00,
2013-08-22 01:51:00,59.8,35.4,30.15,North,0,0.0,0.0,40,0.00,,,0.00,WUHU216HW,2013-08-22 07:51:00,
2013-08-22 01:56:00,59.6,35.2,30.14,North,0,0.0,0.0,40,0.00,,,0.00,WUHU216HW,2013-08-22 07:56:00,
2013-08-22 02:01:00,59.6,35.8,30.15,North,0,0.0,0.0,41,0.00,,,0.00,WUHU216HW,2013-08-22 08:01:00,
2013-08-22 02:06:00,59.4,35.6,30.14,North,0,0.0,0.0,41,0.00,,,0.00,WUHU216HW,2013-08-22 08:06:00,
2013-08-22 02:11:00,59.4,35.6,30.15,North,0,0.0,0.0,41,0.00,,,0.00,WUHU216HW,2013-08-22 08:11:00,
2013-08-22 02:16:00,59.2,36.1,30.15,North,0,0.0,0.0,42,0.00,,,0.00,WUHU216HW,2013-08-22 08:16:00,
2013-08-22 02:21:00,59.2,36.1,30.15,North,0,0.0,0.0,42,0.00,,,0.00,WUHU216HW,2013-08-22 08:21:00,
2013-08-22 02:26:00,59.0,36.5,30.15,North,0,0.0,0.0,43,0.00,,,0.00,WUHU216HW,2013-08-22 08:26:00,
2013-08-22 02:31:00,59.0,35.9,30.15,North,0,0.0,0.0,42,0.00,,,0.00,WUHU216HW,2013-08-22 08:31:00,
2013-08-22 02:36:00,59.0,36.5,30.15,North,0,0.0,0.0,43,0.00,,,0.00,WUHU216HW,2013-08-22 08:36:00,
2013-08-22 02:41:00,59.0,36.5,30.15,North,0,0.0,0.0,43,0.00,,,0.00,WUHU216HW,2013-08-22 08:41:00,
2013-08-22 02:46:00,59.0,36.5,30.15,North,0,0.0,0.0,43,0.00,,,0.00,WUHU216HW,2013-08-22 08:46:00,
2013-08-22 02:51:00,58.9,35.7,30.15,North,0,0.0,0.0,42,0.00,,,0.00,WUHU216HW,2013-08-22 08:51:00,
2013-08-22 02:56:00,58.5,36.0,30.15,North,0,0.0,0.0,43,0.00,,,0.00,WUHU216HW,2013-08-22 08:56:00,
2013-08-22 03:01:00,58.0,35.5,30.15,North,0,0.0,0.0,43,0.00,,,0.00,WUHU216HW,2013-08-22 09:01:00,
2013-08-22 03:06:00,57.6,35.7,30.15,North,0,0.0,0.0,44,0.00,,,0.00,WUHU216HW,2013-08-22 09:06:00,
2013-08-22 03:11:00,57.2,35.5,30.15,North,0,0.0,0.0,44,0.00,,,0.00,WUHU216HW,2013-08-22 09:11:00,
2013-08-22 03:16:00,57.1,35.3,30.16,North,0,0.0,0.0,44,0.00,,,0.00,WUHU216HW,2013-08-22 09:16:00,
2013-08-22 03:21:00,56.9,35.6,30.15,North,0,0.0,0.0,45,0.00,,,0.00,WUHU216HW,2013-08-22 09:21:00,
2013-08-22 03:26:00,56.9,35.6,30.15,North,0,0.0,0.0,45,0.00,,,0.00,WUHU216HW,2013-08-22 09:26:00,
2013-08-22 03:31:00,57.2,37.2,30.15,North,0,0.0,0.0,47,0.00,,,0.00,WUHU216HW,2013-08-22 09:31:00,
2013-08-22 03:36:00,57.6,38.1,30.15,North,0,0.0,0.0,48,0.00,,,0.00,WUHU216HW,2013-08-22 09:36:00,
2013-08-22 03:41:00,57.8,37.1,30.15,North,0,0.0,0.0,46,0.00,,,0.00,WUHU216HW,2013-08-22 09:41:00,
2013-08-22 03:46:00,57.4,36.7,30.15,North,0,0.0,0.0,46,0.00,,,0.00,WUHU216HW,2013-08-22 09:46:00,
2013-08-22 03:51:00,57.2,36.5,30.15,North,0,0.0,0.0,46,0.00,,,0.00,WUHU216HW,2013-08-22 09:51:00,
2013-08-22 03:56:00,56.7,35.5,30.16,North,0,0.0,0.0,45,0.00,,,0.00,WUHU216HW,2013-08-22 09:56:00,
2013-08-22 04:01:00,56.2,35.0,30.16,North,0,0.0,0.0,45,0.00,,,0.00,WUHU216HW,2013-08-22 10:01:00,
2013-08-22 04:06:00,55.8,34.7,30.15,North,0,0.0,0.0,45,0.00,,,0.00,WUHU216HW,2013-08-22 10:06:00,
2013-08-22 04:11:00,55.3,35.3,30.16,North,0,0.0,0.0,47,0.00,,,0.00,WUHU216HW,2013-08-22 10:11:00,
2013-08-22 04:16:00,55.1,35.1,30.15,North,0,0.0,0.0,47,0.00,,,0.00,WUHU216HW,2013-08-22 10:16:00,
2013-08-22 04:21:00,55.1,36.2,30.15,North,0,0.0,0.0,49,0.00,,,0.00,WUHU216HW,2013-08-22 10:21:00,
2013-08-22 04:26:00,55.1,36.7,30.15,North,0,0.0,0.0,50,0.00,,,0.00,WUHU216HW,2013-08-22 10:26:00,
2013-08-22 04:31:00,55.4,37.5,30.15,North,0,0.0,0.0,51,0.00,,,0.00,WUHU216HW,2013-08-22 10:31:00,
2013-08-22 04:36:00,55.6,37.3,30.15,North,0,0.0,0.0,50,0.00,,,0.00,WUHU216HW,2013-08-22 10:36:00,
2013-08-22 04:41:00,55.6,37.3,30.15,North,0,0.0,0.0,50,0.00,,,0.00,WUHU216HW,2013-08-22 10:41:00,
2013-08-22 04:46:00,55.4,36.6,30.15,North,0,0.0,0.0,49,0.00,,,0.00,WUHU216HW,2013-08-22 10:46:00,
2013-08-22 04:49:00,55.3,36.4,30.15,North,0,0.0,0.0,49,0.00,,,0.00,WUHU216HW,2013-08-22 10:49:00,
2013-08-22 04:55:00,54.7,35.9,30.15,North,0,0.0,0.0,49,0.00,,,0.00,WUHU216HW,2013-08-22 10:55:00,
2013-08-22 05:01:00,54.4,35.0,30.15,North,0,0.0,0.0,48,0.00,,,0.00,WUHU216HW,2013-08-22 11:01:00,
2013-08-22 05:07:00,54.0,35.2,30.15,North,0,0.0,0.0,49,0.00,,,0.00,WUHU216HW,2013-08-22 11:07:00,
2013-08-22 05:13:00,53.8,35.1,30.15,North,0,0.0,0.0,49,0.00,,,0.00,WUHU216HW,2013-08-22 11:13:00,
2013-08-22 05:19:00,53.5,34.7,30.15,North,0,0.0,0.0,49,0.00,,,0.00,WUHU216HW,2013-08-22 11:19:00,
2013-08-22 05:25:00,53.1,35.0,30.15,North,0,0.0,0.0,50,0.00,,,0.00,WUHU216HW,2013-08-22 11:25:00,
2013-08-22 05:31:00,52.9,34.8,30.15,North,0,0.0,0.0,50,0.00,,,0.00,WUHU216HW,2013-08-22 11:31:00,
2013-08-22 05:36:00,52.7,35.1,30.15,North,0,0.0,0.0,51,0.00,,,0.00,WUHU216HW,2013-08-22 11:36:00,
2013-08-22 05:42:00,52.7,36.0,30.15,North,0,0.0,0.0,53,0.00,,,0.00,WUHU216HW,2013-08-22 11:42:00,
2013-08-22 05:47:00,52.9,37.1,30.16,North,0,0.0,0.0,55,0.00,,,0.00,WUHU216HW,2013-08-22 11:47:00,
2013-08-22 05:53:00,52.9,36.6,30.15,North,0,0.0,0.0,54,0.00,,,0.00,WUHU216HW,2013-08-22 11:53:00,
2013-08-22 05:59:00,52.9,36.2,30.16,North,0,0.0,0.0,53,0.00,,,0.00,WUHU216HW,2013-08-22 11:59:00,
2013-08-22 06:05:00,52.9,36.2,30.15,North,0,0.0,0.0,53,0.00,,,0.00,WUHU216HW,2013-08-22 12:05:00,
2013-08-22 06:11:00,52.7,36.5,30.16,North,0,0.0,0.0,54,0.00,,,0.00,WUHU216HW,2013-08-22 12:11:00,
2013-08-22 06:17:00,52.6,36.4,30.16,North,0,0.0,0.0,54,0.00,,,0.00,WUHU216HW,2013-08-22 12:17:00,
2013-08-22 06:27:00,52.2,36.0,30.15,North,0,0.0,0.0,54,0.00,,,0.00,WUHU216HW,2013-08-22 12:27:00,
2013-08-22 06:32:00,52.2,36.5,30.15,North,0,0.0,0.0,55,0.00,,,0.00,WUHU216HW,2013-08-22 12:32:00,
2013-08-22 06:37:00,52.2,36.5,30.16,North,0,0.0,0.0,55,0.00,,,0.00,WUHU216HW,2013-08-22 12:37:00,
2013-08-22 06:42:00,52.2,36.5,30.16,North,0,0.0,0.0,55,0.00,,,0.00,WUHU216HW,2013-08-22 12:42:00,
2013-08-22 06:47:00,52.2,36.9,30.16,North,0,0.0,0.0,56,0.00,,,0.00,WUHU216HW,2013-08-22 12:47:00,
2013-08-22 06:52:00,52.6,37.3,30.16,North,0,0.0,0.0,56,0.00,,,0.00,WUHU216HW,2013-08-22 12:52:00,
2013-08-22 06:57:00,52.7,37.5,30.16,North,0,0.0,0.0,56,0.00,,,0.00,WUHU216HW,2013-08-22 12:57:00,
2013-08-22 07:00:00,52.9,37.6,30.16,North,0,0.0,0.0,56,0.00,,,0.00,WUHU216HW,2013-08-22 13:00:00,
2013-08-22 07:05:00,52.9,37.6,30.16,North,0,0.0,0.0,56,0.00,,,0.00,WUHU216HW,2013-08-22 13:05:00,
2013-08-22 07:10:00,52.9,37.1,30.17,North,0,0.0,0.0,55,0.00,,,0.00,WUHU216HW,2013-08-22 13:10:00,
2013-08-22 07:15:00,53.3,37.4,30.16,North,0,0.0,0.0,55,0.00,,,0.00,WUHU216HW,2013-08-22 13:15:00,
2013-08-22 07:20:00,53.5,38.1,30.16,North,0,0.0,0.0,56,0.00,,,0.00,WUHU216HW,2013-08-22 13:20:00,
2013-08-22 07:25:00,54.0,39.1,30.16,North,0,0.0,0.0,57,0.00,,,0.00,WUHU216HW,2013-08-22 13:25:00,
2013-08-22 07:30:00,54.7,39.2,30.16,North,0,0.0,0.0,56,0.00,,,0.00,WUHU216HW,2013-08-22 13:30:00,
2013-08-22 07:35:00,54.9,39.0,30.17,North,0,0.0,0.0,55,0.00,,,0.00,WUHU216HW,2013-08-22 13:35:00,
2013-08-22 07:40:00,55.1,38.6,30.17,North,0,0.0,0.0,54,0.00,,,0.00,WUHU216HW,2013-08-22 13:40:00,
2013-08-22 07:45:00,55.4,39.0,30.17,North,0,0.0,0.0,54,0.00,,,0.00,WUHU216HW,2013-08-22 13:45:00,
2013-08-22 07:50:00,55.8,39.3,30.17,North,0,0.0,0.0,54,0.00,,,0.00,WUHU216HW,2013-08-22 13:50:00,
2013-08-22 07:55:00,56.2,39.7,30.17,North,0,0.0,0.0,54,0.00,,,0.00,WUHU216HW,2013-08-22 13:55:00,
2013-08-22 08:00:00,56.9,40.4,30.17,North,0,0.0,0.0,54,0.00,,,0.00,WUHU216HW,2013-08-22 14:00:00,
2013-08-22 08:05:00,57.2,40.8,30.17,North,0,0.0,0.0,54,0.00,,,0.00,WUHU216HW,2013-08-22 14:05:00,
2013-08-22 08:15:00,58.3,41.8,30.17,North,0,0.0,0.0,54,0.00,,,0.00,WUHU216HW,2013-08-22 14:15:00,
2013-08-22 08:20:00,59.0,42.0,30.17,North,0,0.0,0.0,53,0.00,,,0.00,WUHU216HW,2013-08-22 14:20:00,
2013-08-22 08:28:00,60.8,43.6,30.17,North,0,0.0,0.0,53,0.00,,,0.00,WUHU216HW,2013-08-22 14:28:00,
2013-08-22 08:33:00,61.7,43.9,30.17,North,0,0.0,0.0,52,0.00,,,0.00,WUHU216HW,2013-08-22 14:33:00,
2013-08-22 08:38:00,62.6,44.2,30.17,North,0,0.0,0.0,51,0.00,,,0.00,WUHU216HW,2013-08-22 14:38:00,
2013-08-22 08:44:00,63.2,43.7,30.17,North,0,0.0,0.0,49,0.00,,,0.00,WUHU216HW,2013-08-22 14:44:00,
2013-08-22 08:49:00,63.5,44.0,30.17,North,0,0.0,0.0,49,0.00,,,0.00,WUHU216HW,2013-08-22 14:49:00,
2013-08-22 08:54:00,63.7,43.6,30.16,North,0,0.0,0.0,48,0.00,,,0.00,WUHU216HW,2013-08-22 14:54:00,
2013-08-22 08:59:00,64.3,44.0,30.16,North,0,0.0,0.0,48,0.00,,,0.00,WUHU216HW,2013-08-22 14:59:00,
2013-08-22 09:04:00,64.8,44.0,30.16,North,0,0.0,0.0,47,0.00,,,0.00,WUHU216HW,2013-08-22 15:04:00,
2013-08-22 09:09:00,65.2,43.7,30.16,North,0,0.0,0.0,46,0.00,,,0.00,WUHU216HW,2013-08-22 15:09:00,
2013-08-22 09:14:00,65.7,44.3,30.16,North,0,0.0,0.0,46,0.00,,,0.00,WUHU216HW,2013-08-22 15:14:00,
2013-08-22 09:19:00,66.1,44.0,30.16,North,0,0.0,0.0,45,0.00,,,0.00,WUHU216HW,2013-08-22 15:19:00,
2013-08-22 09:24:00,66.4,44.4,30.15,North,0,0.0,0.0,45,0.00,,,0.00,WUHU216HW,2013-08-22 15:24:00,
2013-08-22 09:29:00,66.8,44.1,30.16,North,0,0.0,0.0,44,0.00,,,0.00,WUHU216HW,2013-08-22 15:29:00,
2013-08-22 09:34:00,67.1,44.4,30.15,North,0,0.0,0.0,44,0.00,,,0.00,WUHU216HW,2013-08-22 15:34:00,
2013-08-22 09:39:00,67.7,44.9,30.15,North,0,0.0,0.0,44,0.00,,,0.00,WUHU216HW,2013-08-22 15:39:00,
2013-08-22 09:44:00,68.0,44.7,30.15,North,0,0.0,0.0,43,0.00,,,0.00,WUHU216HW,2013-08-22 15:44:00,
2013-08-22 09:49:00,68.6,45.1,30.15,North,0,0.0,0.0,43,0.00,,,0.00,WUHU216HW,2013-08-22 15:49:00,
2013-08-22 09:54:00,68.9,44.8,30.15,North,0,0.0,0.0,42,0.00,,,0.00,WUHU216HW,2013-08-22 15:54:00,
2013-08-22 09:59:00,69.5,45.4,30.15,North,0,0.0,0.0,42,0.00,,,0.00,WUHU216HW,2013-08-22 15:59:00,
2013-08-22 10:04:00,70.0,45.2,30.15,North,0,0.0,0.0,41,0.00,,,0.00,WUHU216HW,2013-08-22 16:04:00,
2013-08-22 10:09:00,70.6,45.1,30.15,North,0,0.0,0.0,40,0.00,,,0.00,WUHU216HW,2013-08-22 16:09:00,
2013-08-22 10:14:00,71.3,45.7,30.15,North,0,0.0,0.0,40,0.00,,,0.00,WUHU216HW,2013-08-22 16:14:00,
2013-08-22 10:19:00,71.6,46.1,30.15,North,0,0.0,0.0,40,0.00,,,0.00,WUHU216HW,2013-08-22 16:19:00,
2013-08-22 10:24:00,72.0,45.6,30.15,North,0,0.0,0.0,39,0.00,,,0.00,WUHU216HW,2013-08-22 16:24:00,
2013-08-22 10:29:00,72.5,45.4,30.15,North,0,0.0,0.0,38,0.00,,,0.00,WUHU216HW,2013-08-22 16:29:00,
2013-08-22 10:34:00,72.9,45.7,30.14,North,0,0.0,0.0,38,0.00,,,0.00,WUHU216HW,2013-08-22 16:34:00,
2013-08-22 10:39:00,73.4,45.5,30.14,North,0,0.0,0.0,37,0.00,,,0.00,WUHU216HW,2013-08-22 16:39:00,
2013-08-22 10:44:00,74.0,45.9,30.14,North,0,0.0,0.0,37,0.00,,,0.00,WUHU216HW,2013-08-22 16:44:00,
2013-08-22 10:49:00,74.5,44.9,30.14,North,0,0.0,0.0,35,0.00,,,0.00,WUHU216HW,2013-08-22 16:49:00,
2013-08-22 10:54:00,75.1,44.7,30.14,North,0,0.0,0.0,34,0.00,,,0.00,WUHU216HW,2013-08-22 16:54:00,
2013-08-22 10:59:00,75.2,45.5,30.14,North,0,0.0,0.0,35,0.00,,,0.00,WUHU216HW,2013-08-22 16:59:00,
2013-08-22 11:04:00,75.8,44.6,30.14,North,0,0.0,0.0,33,0.00,,,0.00,WUHU216HW,2013-08-22 17:04:00,
2013-08-22 11:09:00,76.1,45.6,30.13,North,0,0.0,0.0,34,0.00,,,0.00,WUHU216HW,2013-08-22 17:09:00,
2013-08-22 11:14:00,76.9,46.3,30.13,North,0,0.0,0.0,34,0.00,,,0.00,WUHU216HW,2013-08-22 17:14:00,
2013-08-22 11:19:00,77.6,46.9,30.13,North,0,0.0,0.0,34,0.00,,,0.00,WUHU216HW,2013-08-22 17:19:00,
2013-08-22 11:24:00,78.5,46.8,30.13,North,0,0.0,0.0,33,0.00,,,0.00,WUHU216HW,2013-08-22 17:24:00,
2013-08-22 11:29:00,78.8,46.4,30.13,North,0,0.0,0.0,32,0.00,,,0.00,WUHU216HW,2013-08-22 17:29:00,
2013-08-22 11:34:00,79.2,46.7,30.12,North,0,0.0,0.0,32,0.00,,,0.00,WUHU216HW,2013-08-22 17:34:00,
2013-08-22 11:39:00,79.7,46.5,30.12,North,0,0.0,0.0,31,0.00,,,0.00,WUHU216HW,2013-08-22 17:39:00,
2013-08-22 11:44:00,80.3,46.1,30.12,North,0,0.0,0.0,30,0.00,,,0.00,WUHU216HW,2013-08-22 17:44:00,
2013-08-22 11:49:00,80.1,46.0,30.12,North,0,0.0,0.0,30,0.00,,,0.00,WUHU216HW,2013-08-22 17:49:00,
2013-08-22 11:54:00,80.3,46.1,30.12,North,0,0.0,0.0,30,0.00,,,0.00,WUHU216HW,2013-08-22 17:54:00,
2013-08-22 11:59:00,80.8,45.5,30.12,North,0,0.0,0.0,29,0.00,,,0.00,WUHU216HW,2013-08-22 17:59:00,
2013-08-22 12:04:00,80.6,45.4,30.11,North,0,0.0,0.0,29,0.00,,,0.00,WUHU216HW,2013-08-22 18:04:00,
2013-08-22 12:09:00,81.0,45.7,30.11,North,0,0.0,0.0,29,0.00,,,0.00,WUHU216HW,2013-08-22 18:09:00,
2013-08-22 12:13:00,81.2,45.8,30.11,North,0,0.0,0.0,29,0.00,,,0.00,WUHU216HW,2013-08-22 18:13:00,
2013-08-22 12:18:00,81.4,46.0,30.11,North,0,0.0,0.0,29,0.00,,,0.00,WUHU216HW,2013-08-22 18:18:00,
2013-08-22 12:23:00,82.1,46.5,30.11,North,0,0.0,0.0,29,0.00,,,0.00,WUHU216HW,2013-08-22 18:23:00,
2013-08-22 12:28:00,83.0,47.4,30.10,North,0,0.0,0.0,29,0.00,,,0.00,WUHU216HW,2013-08-22 18:28:00,
2013-08-22 12:33:00,83.2,44.3,30.10,North,0,0.0,0.0,26,0.00,,,0.00,WUHU216HW,2013-08-22 18:33:00,
2013-08-22 12:38:00,83.3,44.5,30.10,North,0,0.0,0.0,26,0.00,,,0.00,WUHU216HW,2013-08-22 18:38:00,
2013-08-22 12:43:00,83.5,44.7,30.10,North,0,0.0,0.0,26,0.00,,,0.00,WUHU216HW,2013-08-22 18:43:00,
2013-08-22 12:48:00,83.9,44.9,30.10,North,0,0.0,0.0,26,0.00,,,0.00,WUHU216HW,2013-08-22 18:48:00,
2013-08-22 12:53:00,84.4,44.4,30.09,North,0,0.0,0.0,25,0.00,,,0.00,WUHU216HW,2013-08-22 18:53:00,
2013-08-22 12:58:00,84.8,43.6,30.09,North,0,0.0,0.0,24,0.00,,,0.00,WUHU216HW,2013-08-22 18:58:00,
2013-08-22 13:03:00,84.8,43.6,30.09,North,0,0.0,0.0,24,0.00,,,0.00,WUHU216HW,2013-08-22 19:03:00,
2013-08-22 13:08:00,85.0,44.8,30.09,North,0,0.0,0.0,25,0.00,,,0.00,WUHU216HW,2013-08-22 19:08:00,
2013-08-22 13:13:00,85.3,45.1,30.08,North,0,0.0,0.0,25,0.00,,,0.00,WUHU216HW,2013-08-22 19:13:00,
2013-08-22 13:18:00,86.0,45.7,30.08,North,0,0.0,0.0,25,0.00,,,0.00,WUHU216HW,2013-08-22 19:18:00,
2013-08-22 13:23:00,86.8,45.3,30.07,North,0,0.0,0.0,24,0.00,,,0.00,WUHU216HW,2013-08-22 19:23:00,
2013-08-22 13:28:00,87.3,45.7,30.07,North,0,0.0,0.0,24,0.00,,,0.00,WUHU216HW,2013-08-22 19:28:00,
2013-08-22 13:33:00,87.7,45.0,30.07,North,0,0.0,0.0,23,0.00,,,0.00,WUHU216HW,2013-08-22 19:33:00,
2013-08-22 13:38:00,88.2,46.5,30.07,North,0,0.0,0.0,24,0.00,,,0.00,WUHU216HW,2013-08-22 19:38:00,
2013-08-22 13:43:00,88.6,45.7,30.07,North,0,0.0,0.0,23,0.00,,,0.00,WUHU216HW,2013-08-22 19:43:00,
2013-08-22 13:48:00,88.9,46.0,30.06,North,0,0.0,0.0,23,0.00,,,0.00,WUHU216HW,2013-08-22 19:48:00,
2013-08-22 13:53:00,89.6,46.6,30.06,North,0,0.0,0.0,23,0.00,,,0.00,WUHU216HW,2013-08-22 19:53:00,
2013-08-22 13:58:00,89.6,45.5,30.06,North,0,0.0,0.0,22,0.00,,,0.00,WUHU216HW,2013-08-22 19:58:00,
2013-08-22 14:03:00,89.6,45.5,30.06,North,0,0.0,0.0,22,0.00,,,0.00,WUHU216HW,2013-08-22 20:03:00,
2013-08-22 14:08:00,90.0,45.8,30.06,North,0,0.0,0.0,22,0.00,,,0.00,WUHU216HW,2013-08-22 20:08:00,
2013-08-22 14:13:00,90.0,45.8,30.05,North,0,0.0,0.0,22,0.00,,,0.00,WUHU216HW,2013-08-22 20:13:00,
2013-08-22 14:18:00,90.2,46.0,30.05,North,0,0.0,0.0,22,0.00,,,0.00,WUHU216HW,2013-08-22 20:18:00,
2013-08-22 14:23:00,90.4,46.2,30.05,North,0,0.0,0.0,22,0.00,,,0.00,WUHU216HW,2013-08-22 20:23:00,
2013-08-22 14:28:00,90.2,46.0,30.05,North,0,0.0,0.0,22,0.00,,,0.00,WUHU216HW,2013-08-22 20:28:00,
2013-08-22 14:33:00,90.9,45.5,30.05,North,0,0.0,0.0,21,0.00,,,0.00,WUHU216HW,2013-08-22 20:33:00,
2013-08-22 14:38:00,91.6,46.1,30.04,North,0,0.0,0.0,21,0.00,,,0.00,WUHU216HW,2013-08-22 20:38:00,
2013-08-22 14:43:00,91.8,46.2,30.04,North,0,0.0,0.0,21,0.00,,,0.00,WUHU216HW,2013-08-22 20:43:00,
2013-08-22 14:48:00,91.8,43.4,30.04,North,0,0.0,0.0,19,0.00,,,0.00,WUHU216HW,2013-08-22 20:48:00,
2013-08-22 14:53:00,92.3,45.5,30.04,North,0,0.0,0.0,20,0.00,,,0.00,WUHU216HW,2013-08-22 20:53:00,
2013-08-22 14:58:00,92.5,43.9,30.03,North,0,0.0,0.0,19,0.00,,,0.00,WUHU216HW,2013-08-22 20:58:00,
2013-08-22 15:03:00,92.7,44.1,30.03,North,0,0.0,0.0,19,0.00,,,0.00,WUHU216HW,2013-08-22 21:03:00,
2013-08-22 15:08:00,92.5,43.9,30.03,North,0,0.0,0.0,19,0.00,,,0.00,WUHU216HW,2013-08-22 21:08:00,
2013-08-22 15:13:00,92.2,43.7,30.02,North,0,0.0,0.0,19,0.00,,,0.00,WUHU216HW,2013-08-22 21:13:00,
2013-08-22 15:18:00,92.5,45.7,30.02,North,0,0.0,0.0,20,0.00,,,0.00,WUHU216HW,2013-08-22 21:18:00,
2013-08-22 15:23:00,92.9,44.2,30.02,North,0,0.0,0.0,19,0.00,,,0.00,WUHU216HW,2013-08-22 21:23:00,
2013-08-22 15:28:00,93.6,44.8,30.02,North,0,0.0,0.0,19,0.00,,,0.00,WUHU216HW,2013-08-22 21:28:00,
2013-08-22 15:33:00,93.6,43.0,30.02,North,0,0.0,0.0,18,0.00,,,0.00,WUHU216HW,2013-08-22 21:33:00,
2013-08-22 15:38:00,93.2,42.8,30.01,North,0,0.0,0.0,18,0.00,,,0.00,WUHU216HW,2013-08-22 21:38:00,
2013-08-22 15:43:00,94.0,41.6,30.01,North,0,0.0,0.0,17,0.00,,,0.00,WUHU216HW,2013-08-22 21:43:00,
2013-08-22 15:48:00,94.3,43.6,30.01,North,0,0.0,0.0,18,0.00,,,0.00,WUHU216HW,2013-08-22 21:48:00,
2013-08-22 15:53:00,94.9,40.5,30.00,North,0,0.0,0.0,16,0.00,,,0.00,WUHU216HW,2013-08-22 21:53:00,
2013-08-22 15:58:00,94.3,41.9,30.00,North,0,0.0,0.0,17,0.00,,,0.00,WUHU216HW,2013-08-22 21:58:00,
2013-08-22 16:03:00,94.0,41.6,30.00,North,0,0.0,0.0,17,0.00,,,0.00,WUHU216HW,2013-08-22 22:03:00,
2013-08-22 16:08:00,94.0,41.6,30.00,North,0,0.0,0.0,17,0.00,,,0.00,WUHU216HW,2013-08-22 22:08:00,
2013-08-22 16:13:00,94.5,41.9,30.00,North,0,0.0,0.0,17,0.00,,,0.00,WUHU216HW,2013-08-22 22:13:00,
2013-08-22 16:18:00,94.9,42.3,29.99,North,0,0.0,0.0,17,0.00,,,0.00,WUHU216HW,2013-08-22 22:18:00,
2013-08-22 16:23:00,94.1,40.0,29.99,North,0,0.0,0.0,16,0.00,,,0.00,WUHU216HW,2013-08-22 22:23:00,
2013-08-22 16:28:00,93.6,39.5,29.99,North,0,0.0,0.0,16,0.00,,,0.00,WUHU216HW,2013-08-22 22:28:00,
2013-08-22 16:33:00,92.7,40.6,29.99,North,0,0.0,0.0,17,0.00,,,0.00,WUHU216HW,2013-08-22 22:33:00,
2013-08-22 16:38:00,92.3,40.3,29.99,North,0,0.0,0.0,17,0.00,,,0.00,WUHU216HW,2013-08-22 22:38:00,
2013-08-22 16:43:00,91.8,39.9,29.99,North,0,0.0,0.0,17,0.00,,,0.00,WUHU216HW,2013-08-22 22:43:00,
2013-08-22 16:48:00,91.4,41.3,29.99,North,0,0.0,0.0,18,0.00,,,0.00,WUHU216HW,2013-08-22 22:48:00,
2013-08-22 16:53:00,91.3,41.2,29.99,North,0,0.0,0.0,18,0.00,,,0.00,WUHU216HW,2013-08-22 22:53:00,
2013-08-22 16:58:00,91.3,42.9,29.99,North,0,0.0,0.0,19,0.00,,,0.00,WUHU216HW,2013-08-22 22:58:00,
2013-08-22 17:03:00,90.9,42.7,29.99,North,0,0.0,0.0,19,0.00,,,0.00,WUHU216HW,2013-08-22 23:03:00,
2013-08-22 17:08:00,90.4,45.0,29.99,North,0,0.0,0.0,21,0.00,,,0.00,WUHU216HW,2013-08-22 23:08:00,
2013-08-22 17:13:00,90.0,44.7,29.99,North,0,0.0,0.0,21,0.00,,,0.00,WUHU216HW,2013-08-22 23:13:00,
2013-08-22 17:18:00,89.5,45.4,30.00,North,0,0.0,0.0,22,0.00,,,0.00,WUHU216HW,2013-08-22 23:18:00,
2013-08-22 17:23:00,89.1,45.1,29.99,North,0,0.0,0.0,22,0.00,,,0.00,WUHU216HW,2013-08-22 23:23:00,
2013-08-22 17:28:00,88.6,44.6,29.99,North,0,0.0,0.0,22,0.00,,,0.00,WUHU216HW,2013-08-22 23:28:00,
2013-08-22 17:33:00,88.4,45.5,29.99,North,0,0.0,0.0,23,0.00,,,0.00,WUHU216HW,2013-08-22 23:33:00,
2013-08-22 17:38:00,88.2,44.4,29.99,North,0,0.0,0.0,22,0.00,,,0.00,WUHU216HW,2013-08-22 23:38:00,
2013-08-22 17:43:00,88.2,44.4,29.99,North,0,0.0,0.0,22,0.00,,,0.00,WUHU216HW,2013-08-22 23:43:00,
2013-08-22 17:48:00,88.0,45.3,29.99,North,0,0.0,0.0,23,0.00,,,0.00,WUHU216HW,2013-08-22 23:48:00,
2013-08-22 17:53:00,87.8,45.1,29.99,North,0,0.0,0.0,23,0.00,,,0.00,WUHU216HW,2013-08-22 23:53:00,
2013-08-22 17:58:00,87.5,44.8,30.00,North,0,0.0,0.0,23,0.00,,,0.00,WUHU216HW,2013-08-22 23:58:00,
2013-08-22 18:03:00,87.1,44.5,30.00,North,0,0.0,0.0,23,0.00,,,0.00,WUHU216HW,2013-08-23 00:03:00,
2013-08-22 18:08:00,86.8,43.1,30.01,North,0,0.0,0.0,22,0.00,,,0.00,WUHU216HW,2013-08-23 00:08:00,
2013-08-22 18:13:00,86.2,42.7,30.01,North,0,0.0,0.0,22,0.00,,,0.00,WUHU216HW,2013-08-23 00:13:00,
2013-08-22 18:18:00,85.9,42.3,30.01,North,0,0.0,0.0,22,0.00,,,0.00,WUHU216HW,2013-08-23 00:18:00,
2013-08-22 18:23:00,85.1,42.9,30.02,North,0,0.0,0.0,23,0.00,,,0.00,WUHU216HW,2013-08-23 00:23:00,
2013-08-22 18:28:00,84.2,44.2,30.02,North,0,0.0,0.0,25,0.00,,,0.00,WUHU216HW,2013-08-23 00:28:00,
2013-08-22 18:33:00,83.5,43.6,30.02,North,0,0.0,0.0,25,0.00,,,0.00,WUHU216HW,2013-08-23 00:33:00,
2013-08-22 18:38:00,83.2,43.3,30.02,North,0,0.0,0.0,25,0.00,,,0.00,WUHU216HW,2013-08-23 00:38:00,
2013-08-22 18:43:00,82.8,44.0,30.02,North,0,0.0,0.0,26,0.00,,,0.00,WUHU216HW,2013-08-23 00:43:00,
2013-08-22 18:48:00,82.4,43.8,30.03,North,0,0.0,0.0,26,0.00,,,0.00,WUHU216HW,2013-08-23 00:48:00,
2013-08-22 18:53:00,81.7,47.4,30.02,North,0,0.0,0.0,30,0.00,,,0.00,WUHU216HW,2013-08-23 00:53:00,
2013-08-22 18:58:00,81.2,46.9,30.02,North,0,0.0,0.0,30,0.00,,,0.00,WUHU216HW,2013-08-23 00:58:00,
2013-08-22 19:03:00,81.2,47.6,30.02,North,0,0.0,0.0,31,0.00,,,0.00,WUHU216HW,2013-08-23 01:03:00,
2013-08-22 19:08:00,81.5,47.2,30.02,North,0,0.0,0.0,30,0.00,,,0.00,WUHU216HW,2013-08-23 01:08:00,
2013-08-22 19:13:00,81.5,46.1,30.01,North,0,0.0,0.0,29,0.00,,,0.00,WUHU216HW,2013-08-23 01:13:00,
2013-08-22 19:18:00,81.5,45.1,30.00,North,0,0.0,0.0,28,0.00,,,0.00,WUHU216HW,2013-08-23 01:18:00,
2013-08-22 19:23:00,81.5,46.1,30.00,North,0,0.0,0.0,29,0.00,,,0.00,WUHU216HW,2013-08-23 01:23:00,
2013-08-22 19:28:00,81.4,46.0,30.00,North,0,0.0,0.0,29,0.00,,,0.00,WUHU216HW,2013-08-23 01:28:00,
2013-08-22 19:33:00,81.2,44.8,30.00,North,0,0.0,0.0,28,0.00,,,0.00,WUHU216HW,2013-08-23 01:33:00,
2013-08-22 19:38:00,81.0,45.7,30.00,North,0,0.0,0.0,29,0.00,,,0.00,WUHU216HW,2013-08-23 01:38:00,
2013-08-22 19:43:00,80.6,45.4,29.99,North,0,0.0,0.0,29,0.00,,,0.00,WUHU216HW,2013-08-23 01:43:00,
2013-08-22 19:48:00,80.3,45.1,29.99,North,0,0.0,0.0,29,0.00,,,0.00,WUHU216HW,2013-08-23 01:48:00,
2013-08-22 19:53:00,79.9,44.7,29.99,North,0,0.0,0.0,29,0.00,,,0.00,WUHU216HW,2013-08-23 01:53:00,
2013-08-22 19:58:00,79.6,44.5,29.99,North,0,0.0,0.0,29,0.00,,,0.00,WUHU216HW,2013-08-23 01:58:00,
2013-08-22 20:03:00,79.2,44.1,29.99,North,0,0.0,0.0,29,0.00,,,0.00,WUHU216HW,2013-08-23 02:03:00,
2013-08-22 20:08:00,78.8,44.8,29.99,North,0,0.0,0.0,30,0.00,,,0.00,WUHU216HW,2013-08-23 02:08:00,
2013-08-22 20:13:00,78.5,44.6,29.99,North,0,0.0,0.0,30,0.00,,,0.00,WUHU216HW,2013-08-23 02:13:00,
2013-08-22 20:18:00,78.5,45.3,30.00,North,0,0.0,0.0,31,0.00,,,0.00,WUHU216HW,2013-08-23 02:18:00,
2013-08-22 20:23:00,77.8,45.5,30.00,North,0,0.0,0.0,32,0.00,,,0.00,WUHU216HW,2013-08-23 02:23:00,
2013-08-22 20:28:00,77.4,46.0,30.00,North,0,0.0,0.0,33,0.00,,,0.00,WUHU216HW,2013-08-23 02:28:00,
2013-08-22 20:33:00,76.7,44.6,30.00,North,0,0.0,0.0,32,0.00,,,0.00,WUHU216HW,2013-08-23 02:33:00,
2013-08-22 20:38:00,76.5,45.9,30.01,North,0,0.0,0.0,34,0.00,,,0.00,WUHU216HW,2013-08-23 02:38:00,
2013-08-22 20:43:00,76.1,46.4,30.01,North,0,0.0,0.0,35,0.00,,,0.00,WUHU216HW,2013-08-23 02:43:00,
2013-08-22 20:48:00,76.3,45.7,30.01,North,0,0.0,0.0,34,0.00,,,0.00,WUHU216HW,2013-08-23 02:48:00,
2013-08-22 20:53:00,76.3,45.7,30.02,North,0,0.0,0.0,34,0.00,,,0.00,WUHU216HW,2013-08-23 02:53:00,
2013-08-22 20:58:00,76.1,44.8,30.02,North,0,0.0,0.0,33,0.00,,,0.00,WUHU216HW,2013-08-23 02:58:00,
2013-08-22 21:03:00,75.8,44.6,30.02,North,0,0.0,0.0,33,0.00,,,0.00,WUHU216HW,2013-08-23 03:03:00,
2013-08-22 21:08:00,75.4,44.2,30.02,North,0,0.0,0.0,33,0.00,,,0.00,WUHU216HW,2013-08-23 03:08:00,
2013-08-22 21:13:00,75.1,43.8,30.02,North,0,0.0,0.0,33,0.00,,,0.00,WUHU216HW,2013-08-23 03:13:00,
2013-08-22 21:18:00,74.9,44.5,30.03,North,0,0.0,0.0,34,0.00,,,0.00,WUHU216HW,2013-08-23 03:18:00,
2013-08-22 21:23:00,74.5,44.1,30.04,North,0,0.0,0.0,34,0.00,,,0.00,WUHU216HW,2013-08-23 03:23:00,
2013-08-22 21:28:00,74.2,43.8,30.04,North,0,0.0,0.0,34,0.00,,,0.00,WUHU216HW,2013-08-23 03:28:00,
2013-08-22 21:33:00,74.0,44.4,30.04,North,0,0.0,0.0,35,0.00,,,0.00,WUHU216HW,2013-08-23 03:33:00,
2013-08-22 21:38:00,73.8,45.7,30.03,North,0,0.0,0.0,37,0.00,,,0.00,WUHU216HW,2013-08-23 03:38:00,
2013-08-22 21:43:00,73.8,45.7,30.03,North,0,0.0,0.0,37,0.00,,,0.00,WUHU216HW,2013-08-23 03:43:00,
2013-08-22 21:48:00,73.8,45.7,30.03,North,0,0.0,0.0,37,0.00,,,0.00,WUHU216HW,2013-08-23 03:48:00,
2013-08-22 21:53:00,73.8,46.5,30.03,North,0,0.0,0.0,38,0.00,,,0.00,WUHU216HW,2013-08-23 03:53:00,
2013-08-22 21:58:00,73.8,45.7,30.03,North,0,0.0,0.0,37,0.00,,,0.00,WUHU216HW,2013-08-23 03:58:00,
2013-08-22 22:01:00,73.8,46.5,30.03,North,0,0.0,0.0,38,0.00,,,0.00,WUHU216HW,2013-08-23 04:01:00,
2013-08-22 22:06:00,73.4,46.2,30.03,North,0,0.0,0.0,38,0.00,,,0.00,WUHU216HW,2013-08-23 04:06:00,
2013-08-22 22:11:00,73.1,45.9,30.04,North,0,0.0,0.0,38,0.00,,,0.00,WUHU216HW,2013-08-23 04:11:00,
2013-08-22 22:16:00,72.9,47.3,30.04,North,0,0.0,0.0,40,0.00,,,0.00,WUHU216HW,2013-08-23 04:16:00,
2013-08-22 22:21:00,72.7,47.1,30.04,North,0,0.0,0.0,40,0.00,,,0.00,WUHU216HW,2013-08-23 04:21:00,
2013-08-22 22:26:00,72.4,47.4,30.04,North,0,0.0,0.0,41,0.00,,,0.00,WUHU216HW,2013-08-23 04:26:00,
2013-08-22 22:31:00,72.0,46.5,30.04,North,0,0.0,0.0,40,0.00,,,0.00,WUHU216HW,2013-08-23 04:31:00,
2013-08-22 22:36:00,71.8,46.8,30.04,North,0,0.0,0.0,41,0.00,,,0.00,WUHU216HW,2013-08-23 04:36:00,
2013-08-22 22:41:00,71.8,46.3,30.04,North,0,0.0,0.0,40,0.00,,,0.00,WUHU216HW,2013-08-23 04:41:00,
2013-08-22 22:46:00,71.8,47.4,30.04,North,0,0.0,0.0,42,0.00,,,0.00,WUHU216HW,2013-08-23 04:46:00,
2013-08-22 22:51:00,71.5,48.9,30.04,North,0,0.0,0.0,45,0.00,,,0.00,WUHU216HW,2013-08-23 04:51:00,
2013-08-22 22:56:00,70.9,49.0,30.04,North,0,0.0,0.0,46,0.00,,,0.00,WUHU216HW,2013-08-23 04:56:00,
2013-08-22 23:01:00,70.7,49.4,30.04,North,0,0.0,0.0,47,0.00,,,0.00,WUHU216HW,2013-08-23 05:01:00,
2013-08-22 23:06:00,70.6,49.9,30.05,North,0,0.0,0.0,48,0.00,,,0.00,WUHU216HW,2013-08-23 05:06:00,
2013-08-22 23:11:00,70.4,51.4,30.07,North,0,0.0,0.0,51,0.00,,,0.00,WUHU216HW,2013-08-23 05:11:00,
2013-08-22 23:16:00,70.4,51.4,30.08,North,0,0.0,0.0,51,0.00,,,0.00,WUHU216HW,2013-08-23 05:16:00,
2013-08-22 23:21:00,71.5,50.0,30.07,North,0,0.0,0.0,47,0.00,,,0.00,WUHU216HW,2013-08-23 05:21:00,
2013-08-22 23:26:00,72.4,49.7,30.07,North,0,0.0,0.0,45,0.00,,,0.00,WUHU216HW,2013-08-23 05:26:00,
2013-08-22 23:31:00,72.7,50.1,30.06,North,0,0.0,0.0,45,0.00,,,0.00,WUHU216HW,2013-08-23 05:31:00,
2013-08-22 23:36:00,72.7,50.1,30.06,North,0,0.0,0.0,45,0.00,,,0.00,WUHU216HW,2013-08-23 05:36:00,
2013-08-22 23:41:00,72.4,50.3,30.06,North,0,0.0,0.0,46,0.00,,,0.00,WUHU216HW,2013-08-23 05:41:00,
2013-08-22 23:46:00,71.5,52.4,30.05,North,0,0.0,0.0,51,0.00,,,0.00,WUHU216HW,2013-08-23 05:46:00,
2013-08-22 23:51:00,71.3,51.1,30.05,North,0,0.0,0.0,49,0.00,,,0.00,WUHU216HW,2013-08-23 05:51:00,
2013-08-22 23:56:00,71.6,53.0,30.08,North,0,0.0,0.0,52,0.00,,,0.00,WUHU216HW,2013-08-23 05:56:00,